Regional Weather Roundup
Issued by NWS

Home | Current Version | Previous Version | Text Only | Print | Product List | Glossary On
Versions: 1 2 3 4 5 6 7 8 9 10 11 12 13 14 15 16 17 18 19 20 21 22 23 24 25 26
000
ASUS45 KPSR 271310
RWRAZ

ARIZONA HOURLY REGIONAL WEATHER ROUNDUP
NATIONAL WEATHER SERVICE PHOENIX AZ
600 AM MST FRI MAY 27 2016

NOTE: FAIR INDICATES FEW OR NO CLOUDS BELOW 12,000 FEET WITH NO
SIGNIFICANT WEATHER AND/OR OBSTRUCTIONS TO VISIBILITY.

AZZ001>003-036-271400-
NORTHWEST ARIZONA

CITY           SKY/WX    TMP DP  RH WIND       PRES   REMARKS
BULLHEAD CITY  CLEAR     68  32  26 CALM      29.85R
KINGMAN        CLEAR     54  29  38 SE6       29.93R
$$

AZZ004>008-015-016-018-271400-
NORTH CENTRAL ARIZONA

CITY           SKY/WX    TMP DP  RH WIND       PRES   REMARKS
GRAND CANYON   CLEAR     32  25  75 CALM      30.08R
WILLIAMS       CLEAR     34  25  69 S7        30.15R WCI  28
PRESCOTT       CLEAR     47  29  49 S7        30.02R
FLAGSTAFF      CLEAR     33  27  78 SW3       30.08R
PAYSON         CLEAR     48  27  43 CALM      30.04R
PAGE           CLEAR     57  35  43 CALM      29.95R
$$

AZZ009>014-017-271400-
NORTHEAST ARIZONA

CITY           SKY/WX    TMP DP  RH WIND       PRES   REMARKS
WINSLOW        CLEAR     46  28  49 CALM      30.00R
SAINT JOHNS    CLEAR     47  27  45 CALM      30.02R
WINDOW ROCK    CLEAR     42  29  59 CALM      30.03R
SHOW LOW       CLEAR     45  25  45 S7        30.07R
$$

AZZ023-271400-
GREATER PHOENIX AREA

CITY           SKY/WX    TMP DP  RH WIND       PRES   REMARKS
PHOENIX        CLEAR     68  34  28 E6        29.85R
BUCKEYE        CLEAR     63  32  31 NW5       29.87R
GLENDALE       CLEAR     66  45  45 CALM      29.87
LUKE AFB       CLEAR     63  37  37 CALM      29.85R
DEER VALLEY    CLEAR     61  31  32 E6        29.86R
SCOTTSDALE     CLEAR     66  35  31 CALM      29.88R
MESA-GATEWAY   CLEAR     61  32  33 SE7       29.88R
CHANDLER       CLEAR     61  34  36 VRB6      29.86
$$

AZZ027-028-271400-
SOUTHWEST MARICOPA COUNTY AND PINAL COUNTY

CITY           SKY/WX    TMP DP  RH WIND       PRES   REMARKS
CASA GRANDE    CLEAR     57  25  28 NE3       29.88S
GILA BEND      FAIR      63  31  29 NE3       29.85R
$$

AZZ503-504-507>509-271400-
SOUTHEAST ARIZONA

CITY           SKY/WX    TMP DP  RH WIND       PRES   REMARKS
TUCSON         CLEAR     58  25  28 SE8       29.95R
DAVIS-MONTHAN  CLEAR     56  26  31 S5        29.93R
RYAN FIELD     CLEAR     54  27  35 CALM      29.94
NOGALES        CLEAR     47  25  42 NE6       29.98R
SIERRA VISTA   CLEAR     53  24  33 SW6       30.02S
DOUGLAS        CLEAR     42  16  34 S6        30.00R
SAFFORD        CLEAR     53  23  31 SE5       29.94R
$$

AZZ020-021-025-026-031-271400-
SOUTHWEST ARIZONA

CITY           SKY/WX    TMP DP  RH WIND       PRES   REMARKS
YUMA           CLEAR     66  49  54 NE3       29.83R
$$

CAZ031-033-041-043-047-048-061-271400-
SOUTHERN CALIFORNIA

CITY           SKY/WX    TMP DP  RH WIND       PRES   REMARKS
DOWNTOWN L.A.  CLOUDY    60  54  80 CALM      29.95R
L.A. AIRPORT   MOCLDY    57  54  88 NE5       29.95R
SAN DIEGO      CLOUDY    63  56  78 N7        29.96S
BURBANK        PTCLDY    56  50  80 E3        29.94S
ONTARIO        PTCLDY    54  50  86 W3        29.95S
RIVERSIDE      CLOUDY    56  51  84 CALM      29.96R
PALM SPRINGS     N/A    N/A N/A N/A MISG      29.85R
EL CENTRO NAS  CLEAR     64  46  52 S5        29.84R
IMPERIAL       CLEAR     64  46  52 CALM      29.81R
BLYTHE         CLEAR     68  46  45 CALM      29.82R
NEEDLES        CLEAR     72  32  23 CALM      29.83R
$$

NVZ020-UTZ003-271400-
SOUTHERN NEVADA-UTAH

CITY           SKY/WX    TMP DP  RH WIND       PRES   REMARKS
LAS VEGAS      PTCLDY    69  36  29 CALM      29.84R
SALT LAKE CITY PTCLDY    54  42  64 SE9       29.97R
$$

NMZ009-TXZ055-271400-
NEW MEXICO-WEST TEXAS

CITY           SKY/WX    TMP DP  RH WIND       PRES   REMARKS
ALBUQUERQUE    MOSUNNY   47  25  42 SE7       29.95R
EL PASO        SUNNY     64  23  21 W8        29.93R
$$


........................KEY........................
SKY/WX - SKY CONDITION/WEATHER
TMP    - TEMPERATURE IN FAHRENHEIT
DP     - DEW POINT IN FAHRENHEIT
RH     - RELATIVE HUMIDITY IN PERCENT
WIND   - DIRECTION AND SPEED IN MILES PER HOUR (MPH)
VRB    - VARIABLE WIND DIRECTION
PRES   - MEAN SEA LEVEL PRESSURE IN INCHES OF MERCURY
         F - FALLING PRESSURE   R - RISING PRESSURE
         S - STEADY PRESSURE
VSB    - VISIBILITY IN MILES
HX     - HEAT INDEX IN FAHRENHEIT
WCI    - WIND CHILL INDEX IN FAHRENHEIT
TC     - TEMPERATURE IN CELSIUS WHICH IS ALSO KNOWN AS
         TEMPERATURE IN CENTIGRADE
AFB    - AIR FORCE BASE
         LUKE AFB IS LUKE AIR FORCE BASE
         DAVIS-MONTHAN IS DAVIS-MONTHAN AIR FORCE BASE
NAS    - NAVAL AIR STATION
         EL CENTRO NAS IS EL CENTRO NAVAL AIR STATION
N/A    - NOT AVAILABLE





USA.gov is the U.S. government's official web portal to all federal, state and local government web resources and services.